Weather History for Glasgow, United Kingdom

Change the Weather History Date:

Sunday, October 21, 2012

  Actual Average Record
Temperature  
Mean Temperature 50 °F -  
Max Temperature 59 °F 49 °F 59 °F (1998)
Min Temperature 41 °F 38 °F 28 °F (2003)
Degree Days  
Heating Degree Days 15    
Moisture  
Dew Point 45 °F    
Average Humidity 89    
Maximum Humidity 100    
Minimum Humidity 67    
Precipitation  
Precipitation 0.00 in - - ()
Sea Level Pressure  
Sea Level Pressure 30.13 in    
Wind  
Wind Speed 3 mph ()    
Max Wind Speed 8 mph    
Max Gust Speed -    
Visibility 4.9 miles    
Events Fog , Rain    
Averages and records for this station are not official NWS values.
T = Trace of Precipitation, MM = Missing Value Source: Averaged Metar Reports

Daily Weather History Graph

Daily Weather History Graph

Search for Another Location

Airport:

Trip Planner

Search our weather history database for the weather conditions in past years. The results will help you decide how hot, cold, wet, or windy it might be!

Date:

Astronomy

Oct. 21, 2012 Rise Set
Actual Time 8:01 AM BST 6:01 PM BST
Civil Twilight 7:23 AM BST 6:39 PM BST
Nautical Twilight 6:40 AM BST 7:22 PM BST
Astronomical Twilight 5:57 AM BST 8:05 PM BST
Moon 2:37 PM BST (10/21) 11:18 PM BST (10/21)
Length of Visible Light 11h 16m
Length of Day
9h 59m
Waxing Crescent, 42% of the Moon is Illuminated
Oct 21
Waxing Crescent
Oct 22
First Quarter
Oct 29
Full
Nov 7
Last Quarter
Nov 13
New

Hourly Weather History & Observations

Time (BST) Temp. Windchill Dew Point Humidity Pressure Visibility Wind Dir Wind Speed Gust Speed Precip Events Conditions
12:20 AM 44.6 °F 42.2 °F 44.6 °F 100% 30.04 in 6.2 mi ENE 4.6 mph - N/A   Mostly Cloudy
12:50 AM 46.4 °F - 44.6 °F 93% 30.04 in 6.2 mi Variable 2.3 mph - N/A   Overcast
1:20 AM 44.6 °F 43.1 °F 44.6 °F 100% 30.04 in 6.2 mi ENE 3.5 mph - N/A   Mostly Cloudy
1:50 AM 44.6 °F 43.1 °F 42.8 °F 93% 30.04 in 6.2 mi ENE 3.5 mph - N/A   Scattered Clouds
2:20 AM 44.6 °F - 42.8 °F 93% 30.04 in 6.2 mi East 2.3 mph - N/A   Partly Cloudy
2:50 AM 46.4 °F 45.2 °F 44.6 °F 93% 30.04 in 5.0 mi East 3.5 mph - N/A   Partly Cloudy
3:20 AM 44.6 °F - 42.8 °F 93% 30.04 in 3.1 mi Variable 2.3 mph - N/A   Haze
3:50 AM 42.8 °F - 41.0 °F 93% 30.04 in 0.2 mi West 2.3 mph - N/A Fog Patches of Fog
4:20 AM 41.0 °F - 39.2 °F 93% 30.04 in 0.2 mi Calm Calm - N/A Fog Patches of Fog
4:50 AM 41.0 °F - 41.0 °F 100% 30.04 in - WSW 2.3 mph - N/A Fog Patches of Fog
5:20 AM 41.0 °F - 41.0 °F 100% 30.06 in 0.8 mi Variable 2.3 mph - N/A   Mostly Cloudy
5:50 AM 41.0 °F - 41.0 °F 100% 30.06 in 1.1 mi SW 2.3 mph - N/A   Mostly Cloudy
6:20 AM 42.8 °F - 41.0 °F 93% 30.06 in 3.1 mi NW 2.3 mph - N/A   Mostly Cloudy
6:50 AM 44.6 °F - 42.8 °F 93% 30.09 in 4.3 mi Variable 2.3 mph - N/A   Mostly Cloudy
7:20 AM 44.6 °F - 44.6 °F 100% 30.09 in 5.6 mi Variable 2.3 mph - N/A   Mostly Cloudy
7:50 AM 44.6 °F - 44.6 °F 100% 30.09 in 5.6 mi Variable 2.3 mph - N/A   Mostly Cloudy
8:20 AM 44.6 °F - 44.6 °F 100% 30.09 in 5.6 mi Calm Calm - N/A   Mostly Cloudy
8:50 AM 44.6 °F - 44.6 °F 100% 30.12 in 5.6 mi Calm Calm - N/A Rain Light Rain
9:20 AM 44.6 °F - 44.6 °F 100% 30.12 in 5.6 mi Calm Calm - N/A   Mostly Cloudy
9:50 AM 46.4 °F - 46.4 °F 100% 30.15 in 6.2 mi Calm Calm - N/A   Mostly Cloudy
10:20 AM 50.0 °F - 48.2 °F 94% 30.12 in 6.2 mi Variable 3.5 mph - N/A   Scattered Clouds
10:50 AM 51.8 °F - 48.2 °F 88% 30.12 in 6.2 mi ESE 4.6 mph - N/A   Partly Cloudy
11:20 AM 51.8 °F - 48.2 °F 88% 30.15 in 6.2 mi ENE 5.8 mph - N/A   Partly Cloudy
11:50 AM 53.6 °F - 48.2 °F 82% 30.15 in 6.2 mi Variable 3.5 mph - N/A   Partly Cloudy
12:20 PM 55.4 °F - 48.2 °F 77% 30.15 in 6.2 mi Variable 3.5 mph - N/A   Partly Cloudy
12:50 PM 57.2 °F - 48.2 °F 72% 30.15 in 6.2 mi Variable 2.3 mph - N/A   Scattered Clouds
1:20 PM 57.2 °F - 48.2 °F 72% 30.15 in 6.2 mi Variable 2.3 mph - N/A   Scattered Clouds
1:50 PM 57.2 °F - 48.2 °F 72% 30.15 in 6.2 mi Variable 2.3 mph - N/A   Scattered Clouds
2:20 PM 59.0 °F - 48.2 °F 67% 30.15 in 6.2 mi Calm Calm - N/A   Scattered Clouds
2:50 PM 57.2 °F - 48.2 °F 72% 30.15 in 6.2 mi Calm Calm - N/A   Scattered Clouds
3:20 PM 57.2 °F - 48.2 °F 72% 30.15 in 6.2 mi Variable 3.5 mph - N/A   Scattered Clouds
3:50 PM 57.2 °F - 48.2 °F 72% 30.15 in 6.2 mi Calm Calm - N/A   Scattered Clouds
4:20 PM 59.0 °F - 48.2 °F 67% 30.15 in 6.2 mi Variable 3.5 mph - N/A   Partly Cloudy
4:50 PM 53.6 °F - 46.4 °F 77% 30.15 in 6.2 mi NNE 4.6 mph - N/A   Partly Cloudy
5:20 PM 53.6 °F - 48.2 °F 82% 30.15 in 6.2 mi ENE 4.6 mph - N/A   Partly Cloudy
5:50 PM 53.6 °F - 48.2 °F 82% 30.15 in 6.2 mi ENE 8.1 mph - N/A   Partly Cloudy
6:20 PM 51.8 °F - 48.2 °F 88% 30.15 in 6.2 mi ENE 6.9 mph - N/A   Partly Cloudy
6:50 PM 50.0 °F - 46.4 °F 87% 30.18 in - ENE 6.9 mph - N/A   Clear
7:20 PM 50.0 °F - 46.4 °F 87% 30.18 in - ENE 5.8 mph - N/A   Clear
7:50 PM 46.4 °F 42.9 °F 44.6 °F 93% 30.18 in - ENE 6.9 mph - N/A   Clear
8:20 PM 48.2 °F - 44.6 °F 87% 30.18 in - ENE 6.9 mph - N/A   Clear
8:50 PM 46.4 °F 43.5 °F 44.6 °F 93% 30.21 in - ENE 5.8 mph - N/A   Clear
9:20 PM 46.4 °F 43.5 °F 44.6 °F 93% 30.21 in - ENE 5.8 mph - N/A   Clear
9:50 PM 46.4 °F 43.5 °F 44.6 °F 93% 30.21 in - ENE 5.8 mph - N/A   Clear
10:20 PM 44.6 °F 42.2 °F 42.8 °F 93% 30.21 in - East 4.6 mph - N/A   Clear
10:50 PM 42.8 °F - 42.8 °F 100% 30.24 in 0.6 mi South 2.3 mph - N/A Fog Patches of Fog
11:20 PM 42.8 °F - 41.0 °F 93% 30.24 in 0.4 mi Variable 2.3 mph - N/A Fog Patches of Fog
11:50 PM 41.0 °F 38.0 °F 39.2 °F 93% 30.24 in 0.3 mi NE 4.6 mph - N/A Fog Patches of Fog